Location: Champs
(48.8539°N, 2.6040°E)
Time: 03:48:02
(UTC+00:00)

Cosmos 1339 Rocket - Pass Details

Date: 26 October 2021
Orbit: 942 x 1006 km, 82.9° (Epoch: 30 November)

Event Time Altitude Azimuth Distance (km) Brightness Sun altitude
Rises 05:31:47 0° 197° (SSW) 3,650 7.4 -9.7°
Reaches altitude 10° 05:34:19 10° 200° (SSW) 2,698 6.7 -9.3°
Maximum altitude 05:40:26 65° 282° (WNW) 1,049 4.5 -8.3°
Drops below altitude 10° 05:46:31 10° 4° (N) 2,681 6.8 -7.3°
Sets 05:49:03 0° 8° (N) 3,625 7.5 -6.9°
